Location: Emporia
(38.4040°N, 96.1810°W)
Time: 07:20:19
(UTC-05:00)

Amateur Radio Satellites - All Passes

Search period start: 28 July 2014 06:50
Search period end: 29 July 2014 06:50
Location: Emporia, 38.4040°N, 96.1810°W

Satellite Date Start Highest point End Downlink Frequencies (MHz)
Time Altitude Azimuth
PANSAT 28 Jul 06:51:18 06:53:55 17° 174° (S) 06:56:33 not established
STRAND 1 28 Jul 06:58:19 07:03:17 50° 72° (ENE) 07:08:15 ?
JAS-2 28 Jul 06:58:54 07:04:00 30° 94° (E) 07:08:39 435.800 - 435.900 CW/SSB, 435.910 FM
Hamsat 28 Jul 07:48:47 07:52:59 54° 286° (WNW) 07:57:12 145.90 MHz
MaSat-1 28 Jul 07:49:47 07:55:08 87° 66° (ENE) 08:00:08 437.345 MHz
KITSAT 1 28 Jul 07:57:26 08:05:20 55° 305° (NW) 08:13:16 435.175 FM
ISS 28 Jul 08:22:55 08:25:28 20° 229° (SW) 08:28:00 145.800 FM
Saudisat 1A 28 Jul 08:30:28 08:34:53 86° 120° (ESE) 08:39:20 436.775 MHz
PANSAT 28 Jul 08:30:56 08:33:30 17° 187° (S) 08:36:04 not established
AO-7 28 Jul 08:35:19 08:38:33 13° 313° (NW) 08:41:46 29.400 - 29.500 MHz
STRAND 1 28 Jul 08:39:18 08:42:43 18° 267° (W) 08:46:09 ?
JAS-2 28 Jul 08:43:50 08:49:06 33° 294° (WNW) 08:53:54 435.800 - 435.900 CW/SSB, 435.910 FM
SO-67 28 Jul 08:53:01 08:56:25 52° 284° (WNW) 08:59:48 435.3500 MHz FM
Sapphire 28 Jul 09:04:59 09:05:39 10° 39° (NE) 09:06:18 437.095 MHz 1200 baud AX-25 AFSK
MaSat-1 28 Jul 09:30:43 09:31:35 10° 263° (W) 09:32:26 437.345 MHz
PCSat 28 Jul 09:36:03 09:39:52 19° 47° (NE) 09:43:40 145.825 MHz
KITSAT 1 28 Jul 09:58:23 10:02:45 15° 329° (NNW) 10:07:08 435.175 FM
UKube-1 28 Jul 10:00:15 10:03:44 23° 96° (E) 10:07:12 145.840 MHz, 145.915 MHz
Saudisat 1A 28 Jul 10:13:10 10:15:05 13° 318° (NW) 10:17:00 436.775 MHz
HO-68 28 Jul 10:14:03 10:21:02 54° 101° (ESE) 10:27:58 435.675 MHz FM
Sapphire 28 Jul 10:44:51 10:50:13 60° 60° (ENE) 10:55:34 437.095 MHz 1200 baud AX-25 AFSK
Oscar 11 28 Jul 10:45:49 10:49:53 39° 98° (E) 10:53:57 145.825 FM, Beacon 2401.500 USB
FUNcube-1 28 Jul 11:05:32 11:08:49 22° 95° (E) 11:12:08 145.950 - 145.970 MHz USB
PCSat 28 Jul 11:18:23 11:23:46 66° 246° (WSW) 11:29:06 145.825 MHz
UKube-1 28 Jul 11:36:11 11:39:54 28° 291° (WNW) 11:43:37 145.840 MHz, 145.915 MHz
HO-68 28 Jul 12:02:28 12:08:19 28° 299° (WNW) 12:14:09 435.675 MHz FM
Oscar 11 28 Jul 12:22:55 12:25:46 17° 293° (WNW) 12:28:36 145.825 FM, Beacon 2401.500 USB
Sapphire 28 Jul 12:29:42 12:33:06 17° 256° (WSW) 12:36:29 437.095 MHz 1200 baud AX-25 AFSK
RS-15 28 Jul 12:35:23 12:43:27 24° 102° (ESE) 12:51:19 29.354 - 29.394 USB, Beacon 29.352 USB
FUNcube-1 28 Jul 12:41:41 12:45:11 27° 290° (WNW) 12:48:43 145.950 - 145.970 MHz USB
JAS-1B 28 Jul 12:56:39 13:00:20 13° 46° (NE) 13:04:05 435.800 - 435.900 CW/SSB
SO-50 28 Jul 13:03:32 13:07:51 53° 117° (ESE) 13:12:17 436.795 FM
Uribyol 2 28 Jul 13:11:33 13:12:42 11° 59° (ENE) 13:13:50 436.500 FM
AO-27 28 Jul 13:11:34 13:12:08 10° 59° (ENE) 13:12:41 436.795 MHz FM
Oscar 19 28 Jul 13:39:12 13:43:57 41° 70° (ENE) 13:48:44 437.125 CW, 437.150 USB
KITSAT 1 28 Jul 13:58:10 14:02:44 16° 32° (NNE) 14:07:16 435.175 FM
AO-Echo 28 Jul 14:00:39 14:05:18 32° 69° (ENE) 14:09:58 ?
Oscar 16 28 Jul 14:07:03 14:12:10 81° 75° (ENE) 14:17:18 437.025 USB, Beacon 2401.1428
ITAMSAT 1 28 Jul 14:26:41 14:31:45 54° 72° (ENE) 14:36:50 435.822 SSB
JAS-1B 28 Jul 14:39:58 14:48:27 54° 67° (ENE) 14:57:54 435.800 - 435.900 CW/SSB
TMSAT-1 28 Jul 14:42:06 14:46:08 23° 65° (ENE) 14:50:10 436.925 FM
RS-15 28 Jul 14:43:16 14:54:28 82° 301° (WNW) 15:05:27 29.354 - 29.394 USB, Beacon 29.352 USB
AO-27 28 Jul 14:45:34 14:50:47 84° 75° (ENE) 14:56:02 436.795 MHz FM
SO-50 28 Jul 14:45:38 14:48:45 18° 315° (NW) 14:51:54 436.795 FM
Uribyol 2 28 Jul 14:46:09 14:51:22 88° 76° (ENE) 14:56:35 436.500 FM
Gurwin Techsat 1B 28 Jul 15:04:47 15:09:54 50° 72° (ENE) 15:15:02 435.225 FM
UOSAT-12 28 Jul 15:07:34 15:12:07 71° 119° (ESE) 15:16:47 437.025 FM, 437.400 FM
Oscar 19 28 Jul 15:19:33 15:23:25 22° 266° (W) 15:27:19 437.125 CW, 437.150 USB
AO-Echo 28 Jul 15:39:21 15:43:58 30° 264° (W) 15:48:39 ?
AO-7 28 Jul 15:44:48 15:52:06 35° 60° (ENE) 15:59:24 29.400 - 29.500 MHz
Oscar 16 28 Jul 15:51:24 15:52:05 10° 271° (W) 15:52:46 437.025 USB, Beacon 2401.1428
KITSAT 1 28 Jul 15:52:06 16:00:04 58° 56° (NE) 16:07:58 435.175 FM
Uosat F 28 Jul 15:57:47 16:01:55 26° 67° (ENE) 16:06:02 435.120 FM
ITAMSAT 1 28 Jul 16:08:16 16:11:33 17° 268° (W) 16:14:51 435.822 SSB
TMSAT-1 28 Jul 16:20:43 16:25:44 43° 261° (W) 16:30:47 436.925 FM
AO-27 28 Jul 16:30:28 16:30:54 10° 271° (W) 16:31:19 436.795 MHz FM
JAS-1B 28 Jul 16:31:15 16:39:07 37° 267° (W) 16:47:56 435.800 - 435.900 CW/SSB
Gurwin Techsat 1B 28 Jul 16:46:29 16:50:07 19° 267° (W) 16:53:47 435.225 FM
OPAL 28 Jul 16:48:30 16:52:49 27° 98° (E) 16:57:09 ?
UOSAT-12 28 Jul 16:49:56 16:52:47 16° 317° (NW) 16:55:39 437.025 FM, 437.400 FM
Saudisat 1A 28 Jul 16:58:46 17:03:00 43° 54° (NE) 17:07:11 436.775 MHz
RS-15 28 Jul 16:59:52 17:08:41 27° 327° (NNW) 17:17:30 29.354 - 29.394 USB, Beacon 29.352 USB
JAS-2 28 Jul 17:09:54 17:14:25 17° 59° (ENE) 17:18:46 435.800 - 435.900 CW/SSB, 435.910 FM
Uosat F 28 Jul 17:35:57 17:40:31 34° 262° (W) 17:45:06 435.120 FM
AO-7 28 Jul 17:36:28 17:44:32 52° 258° (WSW) 17:52:40 29.400 - 29.500 MHz
KITSAT 1 28 Jul 17:48:15 17:54:58 30° 254° (WSW) 18:01:41 435.175 FM
OPAL 28 Jul 18:27:09 18:31:40 33° 293° (WNW) 18:36:13 ?
Saudisat 1A 28 Jul 18:39:18 18:42:14 18° 250° (WSW) 18:45:09 436.775 MHz
Hamsat 28 Jul 18:40:25 18:44:35 87° 78° (ENE) 18:48:48 145.90 MHz
JAS-2 28 Jul 18:50:38 18:58:30 84° 75° (ENE) 19:05:55 435.800 - 435.900 CW/SSB, 435.910 FM
STRAND 1 28 Jul 19:11:29 19:15:02 19° 93° (E) 19:18:34 ?
RS-15 28 Jul 19:20:33 19:26:38 16° 4° (N) 19:32:46 29.354 - 29.394 USB, Beacon 29.352 USB
SO-67 28 Jul 19:24:43 19:27:54 35° 74° (ENE) 19:31:06 435.3500 MHz FM
JAS-2 28 Jul 20:39:04 20:44:03 18° 270° (W) 20:48:55 435.800 - 435.900 CW/SSB, 435.910 FM
HO-68 28 Jul 20:41:17 20:47:37 36° 64° (ENE) 20:53:57 435.675 MHz FM
STRAND 1 28 Jul 20:49:34 20:54:27 46° 289° (WNW) 20:59:17 ?
UKube-1 28 Jul 20:55:03 20:58:01 18° 66° (ENE) 21:00:59 145.840 MHz, 145.915 MHz
SO-67 28 Jul 21:00:04 21:01:07 11° 268° (W) 21:02:10 435.3500 MHz FM
RS-15 28 Jul 21:34:33 21:44:06 32° 38° (NE) 21:53:50 29.354 - 29.394 USB, Beacon 29.352 USB
SO-50 28 Jul 21:36:31 21:40:52 34° 52° (NE) 21:45:15 436.795 FM
MaSat-1 28 Jul 21:39:40 21:43:27 49° 109° (ESE) 21:47:54 437.345 MHz
Oscar 11 28 Jul 21:39:50 21:43:24 26° 69° (ENE) 21:46:59 145.825 FM, Beacon 2401.500 USB
FUNcube-1 28 Jul 22:01:30 22:04:13 17° 67° (ENE) 22:06:54 145.950 - 145.970 MHz USB
HO-68 28 Jul 22:28:25 22:35:08 43° 261° (W) 22:41:54 435.675 MHz FM
UKube-1 28 Jul 22:29:51 22:33:55 38° 261° (W) 22:38:01 145.840 MHz, 145.915 MHz
Oscar 11 28 Jul 23:15:59 23:19:30 24° 265° (W) 23:23:03 145.825 FM, Beacon 2401.500 USB
SO-50 28 Jul 23:17:17 23:21:18 27° 248° (WSW) 23:25:21 436.795 FM
MaSat-1 28 Jul 23:18:27 23:21:13 17° 310° (NW) 23:24:15 437.345 MHz
ISS 28 Jul 23:27:14 23:30:07 27° 133° (SE) 23:33:01 145.800 FM
FUNcube-1 28 Jul 23:36:13 23:40:19 40° 261° (W) 23:44:20 145.950 - 145.970 MHz USB
UOSAT-12 28 Jul 23:38:45 23:43:13 40° 53° (NE) 23:47:37 437.025 FM, 437.400 FM
RS-15 28 Jul 23:46:37 23:57:42 82° 242° (WSW) 00:09:13 29.354 - 29.394 USB, Beacon 29.352 USB
PCSat 29 Jul 00:17:01 00:20:50 20° 105° (ESE) 00:24:39 145.825 MHz
ISS 29 Jul 01:03:45 01:06:46 31° 329° (NNW) 01:09:49 145.800 FM
UOSAT-12 29 Jul 01:19:30 01:23:06 22° 249° (WSW) 01:26:39 437.025 FM, 437.400 FM
Sapphire 29 Jul 01:24:55 01:30:18 77° 115° (ESE) 01:35:43 437.095 MHz 1200 baud AX-25 AFSK
Oscar 19 29 Jul 01:53:24 01:56:35 16° 92° (E) 01:59:45 437.125 CW, 437.150 USB
PCSat 29 Jul 01:58:32 02:03:48 52° 302° (WNW) 02:09:06 145.825 MHz
RS-15 29 Jul 02:01:57 02:08:20 17° 261° (W) 02:14:53 29.354 - 29.394 USB, Beacon 29.352 USB
Oscar 16 29 Jul 02:20:38 02:25:15 32° 97° (E) 02:29:50 437.025 USB, Beacon 2401.1428
JAS-1B 29 Jul 02:30:45 02:36:20 18° 84° (E) 02:41:25 435.800 - 435.900 CW/SSB
ITAMSAT 1 29 Jul 02:41:56 02:45:52 22° 94° (E) 02:49:46 435.822 SSB
ISS 29 Jul 02:43:42 02:44:21 10° 348° (NNW) 02:44:59 145.800 FM
AO-40 29 Jul 02:49:59 03:08:05 10° 109° (ESE) 03:24:12 Beacon 2401.320
AO-27 29 Jul 03:00:34 03:05:15 34° 97° (E) 03:09:54 436.795 MHz FM
Uribyol 2 29 Jul 03:00:47 03:05:30 35° 98° (E) 03:10:11 436.500 FM
Sapphire 29 Jul 03:10:54 03:14:20 17° 314° (NW) 03:17:47 437.095 MHz 1200 baud AX-25 AFSK
Gurwin Techsat 1B 29 Jul 03:23:13 03:27:21 23° 94° (E) 03:31:27 435.225 FM
Oscar 19 29 Jul 03:31:11 03:36:14 55° 287° (WNW) 03:41:16 437.125 CW, 437.150 USB
AO-Echo 29 Jul 03:47:44 03:52:48 79° 284° (WNW) 03:57:41 ?
Oscar 16 29 Jul 04:00:06 04:04:28 29° 292° (WNW) 04:08:51 437.025 USB, Beacon 2401.1428
OPAL 29 Jul 04:02:04 04:06:40 41° 68° (ENE) 04:11:18 ?
JAS-1B 29 Jul 04:18:47 04:28:13 90° 288° (WNW) 04:36:10 435.800 - 435.900 CW/SSB
ITAMSAT 1 29 Jul 04:20:39 04:25:30 42° 290° (WNW) 04:30:19 435.822 SSB
TMSAT-1 29 Jul 04:37:45 04:43:04 85° 103° (ESE) 04:48:21 436.925 FM
AO-27 29 Jul 04:40:17 04:44:37 27° 293° (WNW) 04:48:55 436.795 MHz FM
Uribyol 2 29 Jul 04:40:35 04:44:48 26° 293° (WNW) 04:49:00 436.500 FM
Gurwin Techsat 1B 29 Jul 05:02:28 05:07:26 41° 290° (WNW) 05:12:22 435.225 FM
AO-7 29 Jul 05:39:24 05:47:39 61° 104° (ESE) 05:55:48 29.400 - 29.500 MHz
OPAL 29 Jul 05:42:03 05:45:42 21° 264° (W) 05:49:22 ?
Uosat F 29 Jul 05:44:36 05:49:39 82° 103° (ESE) 05:54:38 435.120 FM
ISS 29 Jul 05:57:08 06:00:01 26° 29° (NNE) 06:02:54 145.800 FM
MaSat-1 29 Jul 06:00:40 06:03:19 14° 48° (NE) 06:05:55 437.345 MHz
JAS-1B 29 Jul 06:10:47 06:17:15 22° 306° (NW) 06:23:11 435.800 - 435.900 CW/SSB
KITSAT 1 29 Jul 06:18:30 06:26:10 49° 111° (ESE) 06:33:51 435.175 FM
TMSAT-1 29 Jul 06:20:19 06:22:13 12° 300° (WNW) 06:24:08 436.925 FM
STRAND 1 29 Jul 06:25:56 06:30:02 25° 66° (ENE) 06:34:09 ?
PANSAT 29 Jul 06:26:19 06:28:58 18° 175° (S) 06:31:38 not established
Hamsat 29 Jul 06:28:38 06:31:33 18° 93° (E) 06:34:27 145.90 MHz
